"Pseudo-MPEC" for C34RM02

Created 2020 Sep 19 22:07:05 UT using Find_Orb

Click here for an explanation of pseudo-MPECs

 
 Astrometry: 
     C34RM02  C2020 09 10.19832 22 01 40.76 +03 23 24.4    ~9A5b 21.1 GVNEOCPG96
     C34RM02  C2020 09 10.20303 22 01 35.68 +03 25 34.8    ~9A5b 20.9 GVNEOCPG96
     C34RM02  C2020 09 10.20774 22 01 30.37 +03 27 47.3    ~9A5b 20.2 GVNEOCPG96
     C34RM02  C2020 09 10.21245 22 01 25.34 +03 29 57.2    ~9A5b       VNEOCPG96
     C34RM02  C2020 09 10.31537 21 59 32.47 +04 17 40.5    ~9A87 20.7 GVNEOCPI52
     C34RM02  C2020 09 10.31791 21 59 29.69 +04 18 50.7    ~9A87 20.8 GVNEOCPI52
     C34RM02  C2020 09 10.32045 21 59 26.91 +04 20 01.8    ~9A87 20.2 GVNEOCPI52
     C34RM02  C2020 09 10.32299 21 59 24.13 +04 21 12.0    ~9A87 20.3 GVNEOCPI52
     C34RM02  C2020 09 11.17326 21 44 47.28 +10 48 21.1    ~9B4b 21.1 GVNEOCPG96
     C34RM02  C2020 09 11.17396 21 44 46.49 +10 48 39.8    ~9B4b 21.0 GVNEOCPG96
     C34RM02  C2020 09 11.17465 21 44 45.74 +10 48 57.7    ~9B4b 20.2 GVNEOCPG96
     C34RM02  C2020 09 110%/tGI*^+()?I#]I`k7k(NPLo`SkLrU+[)S_47jpt0?t3CMG4s)#F51

Station data:
(F51) Pan-STARRS 1, Haleakala  (N20.707235 W156.255910)  US/Hawaii.
   Observers N. Primak, A. Schultz, S. Watters, J. Thiel, T. Goggia. Measurer
   PS1 Science Consortium. 1.8-m Ritchey-Chrétien + CCD.
(G96) Mt. Lemmon Survey  (N32.442754 W110.788720)  US/Arizona.  Observers T.
   A. Pruyne, B. M. Africano, E. J. Christensen, G. A. Farneth, D. C. Fuls,
   A. R. Gibbs, A. D. Grauer, H. Gröller, J. A. Johnson, R. A. Kowalski, S.
   M. Larson, G. J. Leonard, D. Rankin, R. L. Seaman, F. C. Shelly. 1.5-m
   reflector + 10K CCD.
(I52) Steward Observatory, Mt. Lemmon Station  (N32.442547 W110.788920)
   US/Arizona.  Observers T. A. Pruyne, B. M. Africano, E. J. Christensen, G.
   A. Farneth, D. C. Fuls, A. R. Gibbs, A. D. Grauer, H. Gröller, J. A.
   Johnson, R. A. Kowalski, S. M. Larson, G. J. Leonard, D. Rankin, R. L.
   Seaman, F. C. Shelly. 1.0-m reflector + CCD.

Orbital elements:  C34RM02
   Perihelion 2020 Oct 14.667998 +/- 0.155 TT = 16:01:55 (JD 2459137.167998)
Epoch 2020 Sep 11.0 TT = JDT 2459103.5   Earth MOID: 0.0563   Ma: 0.0397
M 339.85040240 +/- 0.18             (J2000 ecliptic)          AutoNEOCP
n   0.59847923 +/- 0.00296          Peri.   37.88849 +/- 0.14
a   1.39455824 +/- 0.00459          Node   345.47278 +/- 0.0023
e   0.2700625 +/- 0.00222           Incl.   28.31018 +/- 0.10
P   1.65/601.51d           H 25.9   G  0.15   U  8.8  
q 1.01794033 +/- 0.000302    Q 1.77117616 +/- 0.00896
From 12 observations 2020 Sept. 10-11 (29.0 hr); mean residual 0".53
Residuals in arcseconds: 
200910 G96  .13-  .81+    200910 I52  .08+  .36-    200911 G96  .15+  .45+    
200910 G96  .98+  .09-    200910 I52  .02+  .69-    200911 G96  .30-  .43+    
200910 G96  1.3-  1.1+    200910 I52  .05-  .11-    200911 G96  .32-  .13-    
200910 G96  .63+  .25-    200910 I52  .13-  .42-    200911 F51  .21+  .22-    

Ephemerides (geocentric):
Date (UTC) HH   RA              Dec         delta   r     elong  mag " sig PA
---- -- -- --  -------------   -----------  ------ ------ -----  --- ---- ---
2020 09 19 22  19 39 17.226   +47 42 53.46  .10696 1.0410 107.2 23.5 9.20 137
2020 09 19 23  19 38 50.744   +47 47 16.59  .10727 1.0409 107.1 23.5 9.23 137
2020 09 20 00  19 38 24.350   +47 51 37.80  .10758 1.0408 107.0 23.6 9.26 137
2020 09 20 01  19 37 58.043   +47 55 57.10  .10789 1.0407 106.9 23.6 9.29 137
2020 09 20 02  19 37 31.825   +48 00 14.50  .10821 1.0407 106.8 23.6 9.32 137
2020 09 20 03  19 37 05.694   +48 04 30.02  .10852 1.0406 106.7 23.6 9.35 137
2020 09 20 04  19 36 39.650   +48 08 43.68  .10883 1.0405 106.6 23.6 9.37 137
2020 09 20 05  19 36 13.693   +48 12 55.50  .10914 1.0404 106.4 23.6 9.40 137
2020 09 20 06  19 35 47.823   +48 17 05.48  .10945 1.0404 106.3 23.6 9.43 136
2020 09 20 07  19 35 22.040   +48 21 13.65  .10976 1.0403 106.2 23.6 9.46 136
2020 09 20 08  19 34 56.343   +48 25 20.02  .11008 1.0402 106.1 23.6 9.49 136
2020 09 20 09  19 34 30.732   +48 29 24.61  .11039 1.0401 106.0 23.6 9.52 136
2020 09 20 10  19 34 05.208   +48 33 27.44  .11070 1.0401 105.9 23.6 9.55 136
2020 09 20 11  19 33 39.769   +48 37 28.51  .11102 1.0400 105.8 23.6 9.57 136
2020 09 20 12  19 33 14.415   +48 41 27.85  .11133 1.0399 105.7 23.7 9.60 136
2020 09 20 13  19 32 49.147   +48 45 25.46  .11164 1.0398 105.6 23.7 9.63 136
2020 09 20 14  19 32 23.964   +48 49 21.37  .11196 1.0398 105.5 23.7 9.66 136
2020 09 20 15  19 31 58.866   +48 53 15.59  .11227 1.0397 105.4 23.7 9.68 136
2020 09 20 16  19 31 33.852   +48 57 08.14  .11259 1.0396 105.4 23.7 9.71 136
2020 09 20 17  19 31 08.922   +49 00 59.02  .11290 1.0395 105.3 23.7 9.74 135
2020 09 20 18  19 30 44.077   +49 04 48.25  .11322 1.0395 105.2 23.7 9.76 135
2020 09 20 19  19 30 19.316   +49 08 35.86  .11353 1.0394 105.1 23.7 9.79 135
2020 09 20 20  19 29 54.638   +49 12 21.84  .11385 1.0393 105.0 23.7 9.82 135
2020 09 20 21  19 29 30.044   +49 16 06.22  .11417 1.0393 104.9 23.7 9.84 135
2020 09 20 22  19 29 05.533   +49 19 49.01  .11448 1.0392 104.8 23.7 9.87 135
2020 09 20 23  19 28 41.105   +49 23 30.23  .11480 1.0391 104.7 23.7 9.89 135
2020 09 21 00  19 28 16.759   +49 27 09.88  .11512 1.0390 104.6 23.8 9.92 135
2020 09 21 01  19 27 52.496   +49 30 47.98  .11543 1.0390 104.5 23.8 9.94 135
2020 09 21 02  19 27 28.316   +49 34 24.55  .11575 1.0389 104.4 23.8 9.97 135
2020 09 21 03  19 27 04.217   +49 37 59.59  .11607 1.0388 104.3 23.8 10.0 135
2020 09 21 04  19 26 40.200   +49 41 33.13  .11639 1.0387 104.2 23.8 10.0 135
2020 09 21 05  19 26 16.264   +49 45 05.16  .11670 1.0387 104.1 23.8 10.0 134
2020 09 21 06  19 25 52.410   +49 48 35.72  .11702 1.0386 104.1 23.8 10.1 134
2020 09 21 07  19 25 28.637   +49 52 04.81  .11734 1.0385 104.0 23.8 10.1 134
2020 09 21 08  19 25 04.944   +49 55 32.43  .11766 1.0385 103.9 23.8 10.1 134
2020 09 21 09  19 24 41.332   +49 58 58.62  .11798 1.0384 103.8 23.8 10.1 134
2020 09 21 10  19 24 17.800   +50 02 23.37  .11830 1.0383 103.7 23.8 10.2 134
2020 09 21 11  19 23 54.349   +50 05 46.70  .11862 1.0382 103.6 23.8 10.2 134
2020 09 21 12  19 23 30.977   +50 09 08.62  .11894 1.0382 103.5 23.9 10.2 134
2020 09 21 13  19 23 07.684   +50 12 29.15  .11926 1.0381 103.4 23.9 10.2 134
2020 09 21 14  19 22 44.471   +50 15 48.29  .11958 1.0380 103.4 23.9 10.3 134
2020 09 21 15  19 22 21.337   +50 19 06.06  .11990 1.0380 103.3 23.9 10.3 134
2020 09 21 16  19 21 58.282   +50 22 22.47  .12022 1.0379 103.2 23.9 10.3 134
2020 09 21 17  19 21 35.305   +50 25 37.53  .12054 1.0378 103.1 23.9 10.3 133
2020 09 21 18  19 21 12.406   +50 28 51.26  .12086 1.0377 103.0 23.9 10.3 133
2020 09 21 19  19 20 49.586   +50 32 03.66  .12118 1.0377 102.9 23.9 10.4 133
2020 09 21 20  19 20 26.843   +50 35 14.75  .12150 1.0376 102.9 23.9 10.4 133
2020 09 21 21  19 20 04.178   +50 38 24.53  .12182 1.0375 102.8 23.9 10.4 133